{"data":{"norad_id":67214,"intl_designator":"2025-304Y","name":"STARLINK-36203","alt_names":[],"object_type":"PAYLOAD","status":"ACTIVE","operator":null,"country":"US","launch_date":"2025-12-17","launch_site_code":"AFWTR","launch_vehicle":null,"mission":null,"orbit_class":"UNKNOWN","rcs_meters":null,"size_class":null,"mass_kg":null,"dimensions":null,"purposes":["comms"],"wikipedia_slug":null,"has_3d_model":false,"image_url":null,"decayed_at":null,"tle_current":{"epoch":"2026-09-19T09:12:07.230528Z","epoch_age_seconds":171928,"freshness":"FRESH","line1":"1 67214U 25304Y   26262.38341702  .00003142  00000+0  27094-3 0  9994","line2":"2 67214  70.0013  46.2588 0003108 272.8222  87.2582 14.98338332 42892","mean_motion":14.98338332,"eccentricity":0.0003108,"inclination_deg":70.0013,"raan_deg":46.2588,"arg_perigee_deg":272.8222,"mean_anomaly_deg":87.2582,"bstar":0.00027094,"rev_number":4289,"period_min":96.106464691314,"perigee_km":569.87001309866,"apogee_km":574.19023698359,"semimajor_km":6950.1671250411,"source":"CELESTRAK","updated_at":"2026-09-20T09:00:43.484125Z"}}}